This demonstration page uses our WeatherBlox Daily Observations layout. Learn more.

Left ArrowRight Arrow

Hourly Observations for June 7, 2018

Temp ( °F °C ) Dew Point ( °F °C ) Humidity (%) Winds ( mph kmh ) Pressure ( in mb ) Visibility ( mi km ) Precip ( " mm )
12:54 am 00:54 Clear 75 23.9 58 14.4 55 55 SSE 17 28 29.86 1011 10 16 0.00 0.00
1:04 am 01:04 Clear with Nearby Thunderstorms 74 23.3 59 15 60 60 SSE 20 31 29.85 1011 10 16 0.00 0.00
1:54 am 01:54 Mostly Cloudy with Nearby Thunderstorms 71 21.7 61 16.1 71 71 SE 14 22 29.94 1014 10 16 0.00 0.00
2:36 am 02:36 Mostly Clear 68 20 61 16.1 78 78 SE 9 15 29.94 1014 10 16 0.00 0.00
2:54 am 02:54 Clear 68 20 60 15.6 76 76 SSE 13 20 29.92 1013 10 16 0.00 0.00
3:06 am 03:06 Clear with Nearby Thunderstorms 68 20 60 15.6 76 76 SE 9 15 29.94 1014 10 16 0.00 0.00
3:54 am 03:54 Partly Cloudy 69 20.6 59 15 70 70 S 17 28 29.89 1012 10 16 0.00 0.00
4:54 am 04:54 Clear 69 20.6 59 15 70 70 S 14 22 29.89 1012 10 16 0.00 0.00
5:54 am 05:54 Clear 69 20.6 59 15 70 70 SW 13 20 29.91 1013 10 16 0.00 0.00
6:54 am 06:54 Sunny 73 22.8 58 14.4 59 59 W 8 13 29.96 1014 10 16 0.00 0.00
7:54 am 07:54 Sunny 72 22.2 62 16.7 71 71 ENE 5 7 29.95 1014 10 16 0.00 0.00
8:54 am 08:54 Sunny 71 21.7 61 16.1 71 71 NE 14 22 29.91 1013 10 16 0.00 0.00
9:54 am 09:54 Sunny 73 22.8 65 18.3 76 76 ENE 15 24 29.92 1013 10 16 0.00 0.00
10:54 am 10:54 Sunny 75 23.9 63 17.2 66 66 E 16 26 29.93 1014 10 16 0.00 0.00
11:54 am 11:54 Sunny 77 25 64 17.8 64 64 SE 12 19 29.97 1015 10 16 0.00 0.00
12:54 pm 12:54 Sunny 77 25 63 17.2 62 62 ESE 7 11 29.98 1015 10 16 0.00 0.00
1:54 pm 13:54 Sunny 78 25.6 64 17.8 62 62 E 7 11 29.98 1015 10 16 0.00 0.00
2:54 pm 14:54 Sunny 79 26.1 65 18.3 62 62 E 9 15 29.97 1015 10 16 0.00 0.00
3:54 pm 15:54 Sunny 81 27.2 65 18.3 58 58 SE 10 17 29.96 1014 10 16 0.00 0.00
4:54 pm 16:54 Mostly Sunny 84 28.9 65 18.3 53 53 E 5 7 29.94 1014 10 16 0.00 0.00
5:54 pm 17:54 Sunny 83 28.3 65 18.3 55 55 SE 8 13 29.93 1014 10 16 0.00 0.00
6:54 pm 18:54 Sunny 81 27.2 63 17.2 54 54 SSE 10 17 29.93 1013 10 16 0.00 0.00
7:54 pm 19:54 Sunny 81 27.2 62 16.7 53 53 SE 10 17 29.92 1013 10 16 0.00 0.00
8:54 pm 20:54 Sunny 76 24.4 64 17.8 67 67 SSE 6 9 29.93 1013 10 16 0.00 0.00
9:54 pm 21:54 Clear 76 24.4 64 17.8 67 67 ESE 6 9 29.93 1014 10 16 0.00 0.00
10:54 pm 22:54 Clear 74 23.3 64 17.8 71 71 Calm 29.95 1014 10 16 0.00 0.00
11:54 pm 23:54 Clear 69 20.6 63 17.2 81 81 Calm 29.96 1015 10 16 0.00 0.00

Powered by AerisWeather